Regional Weather Roundup
Issued by NWS Green Bay, WI

Home | Current Version | Previous Version | Text Only | Print | Product List | Glossary On
Versions: 1 2 3 4 5 6 7 8 9 10 11 12 13 14 15 16 17 18 19 20 21 22 23 24 25 26 27 28 29 30 31 32 33 34 35 36 37 38 39 40 41 42 43 44 45 46 47 48 49 50
000
ASUS43 KGRB 290500
RWRGRB

NORTH-CENTRAL AND NORTHEAST WISCONSIN REGIONAL WEATHER ROUNDUP
NATIONAL WEATHER SERVICE GREEN BAY WI
1200 AM CDT SAT APR 29 2017

WIZ005-009-010>012-018-019-290600-
NORTH CENTRAL WISCONSIN

CITY           SKY/WX    TMP DP  RH WIND       PRES   REMARKS
IRONWOOD       CLEAR     27  25  92 SW3       30.14S
MANITOWISH WTR NOT AVBL
ARBOR VITAE    NOT AVBL
EAGLE RIVER    NOT AVBL
LAND O LAKES   NOT AVBL
RHINELANDER    CLEAR     33  27  78 N3        30.11R
PHILLIPS       NOT AVBL
ANTIGO         NOT AVBL
TOMAHAWK       NOT AVBL
MERRILL        NOT AVBL
$$

WIZ013-073-290600-
NORTHEAST WISCONSIN

CITY           SKY/WX    TMP DP  RH WIND       PRES   REMARKS
IRON MOUNTAIN  CLEAR     33  23  66 NW8       30.09R
MARINETTE      CLOUDY    41  30  65 CALM      30.10R
$$

WIZ017-030-035>037-045-290600-
CENTRAL WISCONSIN

CITY           SKY/WX    TMP DP  RH WIND       PRES   REMARKS
MEDFORD        NOT AVBL
WAUSAU         CLOUDY    36  29  75 CALM      30.07S
MOSINEE        NOT AVBL
MARSHFIELD     CLOUDY    39  29  67 NE3       30.07R
WISC RAPIDS    CLOUDY    43  31  62 E7        30.10R
STEVENS POINT  NOT AVBL
WAUPACA        NOT AVBL
SHAWANO        NOT AVBL
CLINTONVILLE   NOT AVBL
WAUTOMA        CLOUDY    45  34  65 MISG      30.09R
$$

WIZ038-039-048-051-290600-
FOX VALLEY

CITY           SKY/WX    TMP DP  RH WIND       PRES   REMARKS
NWS GREEN BAY  CLOUDY    45  33  63 N15       30.08R
APPLETON       NOT AVBL
OSHKOSH        CLOUDY    46  36  68 N10       30.06R
FOND DU LAC    CLOUDY    47  36  65 N7        30.06R
$$

WIZ022-050-052-290600-
EAST CENTRAL WISCONSIN

CITY           SKY/WX    TMP DP  RH WIND       PRES   REMARKS
EPHRAIM        NOT AVBL
WASHINGTON ISL NOT AVBL
STURGEON BAY   CLOUDY    42  32  67 N10       30.09R
MANITOWOC      NOT AVBL
SHEBOYGAN      CLOUDY    43  41  93 N3        30.05R FOG
$$

LMZ563-521-522-541>543-290600-
LAKESHORE

STATION/POSITION TIME  TEMP    WIND        PRES    VSBY  WAVE
                       AIR SEA DIR/SP/G                  HT/PER
                 (UTC) (F)     (DEG/KT/KT) (MB)    (MI)  (FT/S)
SHEBOYGAN LKSHOR 0400   41     340/  5/  5 1017.8R
KEWAUNEE LKSHORE 0430   44     360/  5/  9 1018.0R
NORTHPORT PIER   0430   40     340/  6/  7 1018.6S
N MID LAKE BUOY  0350   38 37  310/  4/  6 1019.8R         1/ 4
CHAMBERS ISLAND  0440   41     310/  4/  5 1018.6R
MENOMINEE LKSHOR 0430   43     320/  8/ 10 1018.0R
$$




USA.gov is the U.S. government's official web portal to all federal, state and local government web resources and services.